DELTA 1 DEB, 42078

Orbit data source: Space-Track

DELTA 1 DEB, 42078 is space debris in SSO originally from a launch on Sun, 15 Dec 1968 UTC launched from the Air Force Western Test Range (AFWTR). Debris objects in space refer to the collection of defunct objects orbiting the Earth. Examples of debris include non-operational satellites, rocket bodies, and fragments generated from explosions, collisions, or faulty payload assembly.

Loading next visibility...
Identifier
42078, 1968-114E
Orbit
SSO
Last TLE update
2 weeks ago
Origin
Manufacturer
Aerojet
Mission
Spacecraft
Bus & Motor
Unknown
Mass
Unknown
Launch date (UTC)
1968-12-15 (57 years ago)
Launch vehicle
Unknown
Launch site
Air Force Western Test Range (AFWTR)
Object type
Payload
Rocket body
Debris
Shape & HBR
Unknown
Radar Cross Section
Small (<0.1 m²)

Expand to show TLE details & history

TLE from 2 weeks ago
0 DELTA 1 DEB
1 42078U 68114E   25167.15742218 -.00000009  00000-0  22492-3 0  9994
2 42078 101.4592 135.7368 0027204 259.3561 100.4446 12.50016669177475
Epoch: 2025-06-16T03:46Z
TLE epoch observation values (Epoch: 2025-06-16T03:46:41.276Z)
Latitude
-0.00003°
Longitude
174.39263°
Altitude
1,470.933 km
Speed
7.126 km/s
True Right ascension
09h 02m 56s
True Declination
0° 00' 00"
Sunlit
Object was in daylight at epoch
Visualization orbit readout
Latitude
-41.33906°
Longitude
-160.73329°
Altitude
1,479.258 km
Speed
7.123 km/s
Apparent Right ascension
10h 25m 01s
Apparent Declination
-40° 37' 48"
Sunlit
Object is in daylight
Visualization observer readout
Local Sidereal Time
22:03:59
Azimuth
258.209° W
Elevation
-85.928°
Doppler factor
1
Orbital elements
Apogee altitude
1,483.283 km
Perigee altitude
1,440.627 km
Semi-major axis
7,840.092 km
Eccentricity
0.00272
Inclination
101.4592°
RAAN
135.7368°
Arg. of periapsis
259.3561°
True anomaly
Unknown
Mean anomaly
100.4446°
Eccentric anomaly
Unknown
Mean motion
3.12652 °/min
Orbital period
115.14 mins
BSTAR
0.00022492
Loading maneuver chart data...
Loading SW <> Apogee altitude chart data...
Loading historical data...
Loading historical data...
Loading historical data...
Loading historical data...
Loading historical data...
Loading historical data...
Loading historical data...

DELTA 1 DEB Visibility forecast

Observer location: undefined°, undefined°

Span
Click to sort rows by Start time (UTC) header in descending order
Start Az.
Max El. time (UTC)
Max El. Az.
Max El.
End time (UTC)
End Az.
16 mins2025-07-01 11:15:33.131Z11.851° NNE2025-07-01 11:23:33.131Z281.188° WNW43.107°2025-07-01 11:31:33.131Z210.711° SW
7 mins2025-07-01 13:11:33.131Z337.899° N2025-07-01 13:14:33.131Z315.002° NNW15.306°2025-07-01 13:18:33.131Z284.191° WNW
13 mins2025-07-01 20:24:33.131Z114.194° SE2025-07-01 20:30:33.131Z56.45° ENE30.104°2025-07-01 20:37:33.131Z358.969° N
14 mins2025-07-01 22:16:33.131Z185.635° SSW2025-07-01 22:23:33.131Z269.587° W39.039°2025-07-01 22:30:33.131Z332.683° NNW
5 mins2025-07-02 10:20:33.131Z27.906° NE2025-07-02 10:25:33.131Z61.795° ENE37.324°2025-07-02 10:25:33.131Z61.795° ENE
|